Weather Roundup
Issued by NWS Chicago, IL

Home | Current Version | Previous Version | Text Only | Print | Product List | Glossary Off
Versions: 1 2 3 4 5 6 7 8 9 10 11 12 13 14 15 16 17 18 19 20 21 22 23 24 25 26 27 28 29 30 31 32 33 34 35 36 37 38 39 40 41 42 43 44 45 46 47 48 49 50

000
NZUS59 KLOT 262221
HRRLOT

CHICAGO AREA WEATHER ROUNDUP
NATIONAL WEATHER SERVICE CHICAGO/ROMEOVILLE IL
500 PM CDT THU MAR 26 2015

NOTE: "FAIR" INDICATES FEW OR NO CLOUDS BELOW 12,000 FEET WITH NO
SIGNIFICANT WEATHER AND/OR OBSTRUCTIONS TO VISIBILITY.

* THESE STATIONS ARE NOT UNDER NWS QUALITY CONTROL. THEY ALSO MAY NOT
  REPORT WEATHER SUCH AS PRECIPITATION OR FOG.

ILZ005-006-012>014-019>023-262300-
NORTHEAST ILLINOIS

CITY           SKY/WX    TMP DP  RH WIND       PRES   REMARKS
OHARE          CLOUDY    38  23  55 NW14      29.99R
MIDWAY         PTSUNNY   42  22  44 NW15      29.99R
AURORA         CLOUDY    40  24  53 NW14      30.01R
LANSING*       CLOUDY    41  20  42 N7        29.98R
JOLIET*        CLOUDY    41  24  49 NW9       30.01R
WAUKEGAN       CLOUDY    36  24  62 N13       29.99R
DUPAGE AIRPORT CLOUDY    39  22  50 NW14      30.00R
WHEELING       CLOUDY    39  22  50 NW13      30.01R
KANKAKEE*      MOSUNNY   43  30  60 NW15G22   29.99R
MORRIS*        CLOUDY    41  25  53 NW9G16    30.01R
LEWIS AIRPORT* CLOUDY    40  22  49 NW12      30.00R
NORTHERLY IS     N/A     37  27  67 NE7         N/A
$$

WIZ051-052-058>065-066-070>072-262300-
SOUTHEAST WISCONSIN

CITY           SKY/WX    TMP DP  RH WIND       PRES   REMARKS
MILWAUKEE      CLOUDY    35  19  52 NW12G20   29.99R WCI  27
KENOSHA*       CLOUDY    36  23  59 NW10      29.99R
RACINE*        CLOUDY    36  21  54 N13       30.00R
BURLINGTON     CLOUDY    34  19  54 NW13      29.99R WCI  25
WAUKESHA       CLOUDY    34  19  55 NW16      29.98R WCI  23
WEST BEND      CLOUDY    32  19  59 NW15      29.99R WCI  22
$$

INZ001>003-010>013-019-020-262300-
NORTHWEST INDIANA

CITY           SKY/WX    TMP DP  RH WIND       PRES   REMARKS
GARY*          PTSUNNY   39  19  45 NE8       29.99R
MICHIGAN CITY* NOT AVBL
RENSSELAER*    NOT AVBL
VALPARAISO     CLOUDY    40  22  48 NW9       29.97R
$$

LMZ740>746-262300-
SOUTHERN LAKE MICHIGAN

STATION/POSITION TIME  SKY/WX   TEMP WIND        PRES    VSBY
                                AIR  DIR/SP/G
                 (UTC)          (F)  (DEG/KT/KT) (MB)    (MI)
HARRISON CRIB    2200            35   50/  6/  6   N/A
BURNHAM HARBOR   2200            37   60/  6/ 10   N/A
CALUMET HARBOR   2100            38   30/  7/  9 1013.8R
BURNS HARBOR     2100            36   40/  5/  6 1015.6R
MICHIGAN CITY    2200            36  320/  6/  6   N/A
$$

ABBREVIATIONS USED IN REMARKS
   TC - TEMPERATURE IN CELSIUS
  WCI - WIND CHILL INDEX
   HX - HEAT INDEX
  VSB - VISIBILITY
$$


USA.gov is the U.S. government's official web portal to all federal, state and local government web resources and services.